CAPE
0 0 0 0 0 0 0 0 0 0 0 0 0 0 0 0 0 0 0 0 0 0 0 0 0 0 0 0 0 0 0 0 0 0 0 0 0 0 0 0 0 0 0 0
0 0 0 0 0 0 0 0 0 0 0 0 0 0 0 0 0 0 0 0 0 0 0 0 0 0 0 0 0 0 0 0 0 0 0 0 0 0 0 0 0 0 0 0
0 0 0 0 0 0 0 0 0 0 0 0 0 0 0 0 0 0 0 0 0 0 0 0 0 0 0 0 0 0 0 0 0 0 0 0 0 0 0 0 0 0 0 0
0 0 0 0 0 0 0 0 0 0 0 0 0 0 0 0 0 0 0 0 0 0 0 0 0 0 0 0 0 0 0 0 0 0 0 0 0 0 0 0 0 0 0 0
0 0 0 0 0 0 0 0 0 0 0 0 0 0 0 0 0 0 0 0 0 0 0 0 0 0 0 0 0 0 0 0 0 0 0 0 0 0 0 0 0 0 0 0
0 0 0 0 0 0 0 0 0 0 0 0 0 0 0 0 0 0 0 0 0 0 0 0 0 0 0 0 0 0 0 0 0 0 0 0 0 0 0 0 0 0 0 0
0 0 0 0 0 0 0 0 0 0 0 0 0 0 0 0 0 0 0 0 0 0 0 0 0 0 0 0 0 0 0 0 0 0 0 0 0 0 0 0 0 0 0 0
0 0 0 0 0 0 0 0 0 0 0 0 0 0 0 0 0 0 0 0 0 0 0 0 0 0 0 0 0 0 0 0 0 0 0 0 0 0 0 0 0 0 0 0
0 0 0 0 0 0 0 0 0 0 0 0 0 0 0 0 0 0 0 0 0 0 0 0 0 0 0 0 0 0 0 0 0 0 0 0 0 0 0 0 0 0 0 0
0 0 0 0 0 0 0 0 0 0 0 0 0 0 0 0 0 0 0 0 0 0 0 0 0 0 0 0 0 0 0 0 0 0 0 0 0 0 0 0 0 0 0 0
0 0 0 0 2 5 0 0 0 0 1 0 0 0 0 0 0 0 0 0 0 0 0 0 0 0 0 0 0 0 0 0 0 0 0 0 0 0 0 0 0 0 0 0
3 1 0 0 0 0 0 0 29 23 0 0 0 0 0 0 0 0 0 0 0 0 0 0 0 0 0 0 0 0 0 0 0 0 0 0 0 0 0 0 0 0 0 0
0 10 0 0 0 0 0 0 0 0 7 2 6 5 0 0 0 0 0 0 0 0 0 0 0 0 0 0 0 0 0 0 0 0 0 0 0 0 0 0 0 0 0 0
0 0 0 0 0 2 0 0 0 0 0 0 2 9 0 0 0 0 0 0 0 0 0 0 0 0 0 0 0 0 0 0 0 0 0 0 0 0 0 0 0 0 0 0
0 0 0 0 0 0 0 0 0 0 0 0 0 0 0 0 0 0 0 0 0 0 0 0 0 0 0 0 0 0 0 0 0 0 0 0 0 0 0 0 0 0 0 0
0 0 0 0 0 0 0 0 0 0 0 0 0 0 0 13 10 0 0 0 0 0 0 0 0 0 0 0 0 0 0 0 0 0 0 0 0 0 0 0 0 0 0 0
0 0 0 0 0 0 0 0 0 1 0 1 0 0 0 0 0 0 1 0 0 0 0 0 0 0 0 0 0 0 0 0 0 0 0 0 0 0 0 0 0 0 0 0
0 0 1 0 1 0 0 0 0 7 0 10 4 0 0 0 0 0 0 0 0 0 0 0 0 0 0 0 0 0 0 0 0 0 0 0 0 0 0 0 0 0 0 0
0 0 1 1 0 0 0 3 0 0 0 16 0 0 0 0 0 0 0 0 0 0 0 0 0 0 0 0 0 0 0 0 0 0 0 0 0 0 0 0 0 0 0 0
0 0 2 0 1 0 0 0 0 23 0 1 0 0 0 0 0 0 0 0 0 0 0 0 0 0 0 0 0 0 0 0 0 0 0 0 0 0 0 0 0 0 0 0
0 0 0 0 0 0 0 0 19 0 0 0 0 0 0 0 0 0 0 0 0 0 0 0 0 0 0 0 0 0 0 0 0 0 0 0 0 0 0 0 0 0 0 0
0 1 0 0 0 0 0 0 0 0 0 0 0 0 0 0 0 0 0 0 0 0 0 0 2 0 0 0 0 0 0 0 0 0 0 0 0 0 0 0 0 0 0 0
0 0 0 1 0 0 0 0 0 0 0 0 0 0 0 0 0 0 0 0 0 0 0 7 1 0 0 0 0 0 0 0 0 0 0 0 0 0 0 0 0 0 0 0
0 0 0 0 0 0 0 0 0 0 0 0 0 0 0 0 0 0 0 0 0 0 2 3 0 0 0 0 0 0 0 0 0 0 0 0 0 0 0 0 0 0 0 0
0 0 0 0 0 0 0 0 0 0 0 0 0 0 0 0 0 0 0 0 0 0 17 0 0 0 0 0 0 0 0 0 0 0 0 0 0 0 0 0 0 0 0 0
0 0 0 0 0 0 0 0 0 0 0 0 0 0 0 0 0 0 0 0 0 0 19 0 0 1 0 0 0 0 0 0 0 0 0 0 0 0 0 0 0 0 0 0
CIN
0 0 0 0 0 0 0 0 0 0 0 0 0 0 0 0 0 0 0 0 0 0 0 0 0 0 0 0 0 0 0 0 0 0 0 0 0 0 0 0 0 0 0 0
0 0 0 0 0 0 0 0 0 0 0 0 0 0 0 0 0 0 0 0 0 0 0 0 0 0 0 0 0 0 0 0 0 0 0 0 0 0 0 0 0 0 0 0
0 0 0 0 0 0 0 0 0 0 0 0 0 0 0 0 0 0 0 0 0 0 0 0 0 0 0 0 0 0 0 0 0 0 0 0 0 0 0 0 0 0 0 0
0 0 0 0 0 0 0 0 0 0 0 0 0 0 0 0 0 0 0 0 0 0 0 0 0 0 0 0 0 0 0 0 0 0 0 0 0 0 0 0 0 0 0 0
0 0 0 0 0 0 0 0 0 0 0 0 0 0 0 0 0 0 0 0 0 0 0 0 0 0 0 0 0 0 0 0 0 0 0 0 0 0 0 0 0 0 0 0
0 0 0 0 0 0 0 0 0 0 0 0 0 0 0 0 0 0 0 0 0 0 0 0 0 0 0 0 0 0 0 0 0 0 0 0 0 0 0 0 0 0 0 0
0 0 0 0 0 0 0 0 0 0 0 0 0 0 0 0 0 0 0 0 0 0 0 0 0 0 0 0 0 0 0 0 0 0 0 0 0 0 0 0 0 0 0 0
0 0 0 0 0 0 0 0 0 0 0 0 0 0 0 0 0 0 0 0 0 0 0 0 0 0 0 0 0 0 0 0 0 0 0 0 0 0 0 0 0 0 0 0
0 0 0 0 0 0 0 0 0 0 0 0 0 0 0 0 0 0 0 0 0 0 0 0 0 0 0 0 0 0 0 0 0 0 0 0 0 0 0 0 0 0 0 0
0 0 0 0 0 0 0 0 0 0 0 0 0 0 0 0 0 0 0 0 0 0 0 0 0 0 0 0 0 0 0 0 0 0 0 0 0 0 0 0 0 0 0 0
0 0 0 0 0 -8 0 -4 0 0 -18 -15 0 0 0 0 0 0 0 0 0 0 0 0 0 0 0 0 0 0 0 0 0 0 0 0 0 0 0 0 0 0 0 0
-2 -5 0 0 0 0 0 0 -24 -13 -2 0 0 0 0 0 0 0 0 0 0 0 0 0 0 0 0 0 0 0 0 0 0 0 0 0 0 0 0 0 0 0 0 0
0 0 0 0 0 0 0 0 0 0 -2 -2 -1 -3 0 0 0 0 0 0 0 0 0 0 0 0 0 0 0 0 0 0 0 0 0 0 0 0 0 0 0 0 0 0
0 0 0 0 0 -1 0 0 0 0 0 0 0 -2 0 0 0 0 0 0 0 0 0 0 0 0 0 0 0 0 0 0 0 0 0 0 0 0 0 0 0 0 0 0
-1 0 0 0 0 0 0 0 0 0 0 0 0 0 0 0 0 0 0 0 0 0 0 0 0 0 0 0 0 0 0 0 0 0 0 0 0 0 0 0 0 0 0 0
0 0 0 0 0 0 0 0 0 0 0 0 0 0 -12 -17 -14 0 0 0 0 0 0 0 0 0 0 0 0 0 0 0 0 0 0 0 0 0 0 0 0 0 0 0
0 0 0 -2 0 -4 0 0 0 -20 0 -11 0 0 0 0 0 0 0 0 0 0 0 0 0 0 0 0 0 0 0 0 0 0 0 0 0 0 0 0 0 0 0 0
0 0 0 0 -32 0 0 0 0 -8 0 -45 -57 0 0 0 0 0 -4 0 0 0 0 0 0 0 0 0 0 0 0 0 0 0 0 0 0 0 0 0 0 0 0 0
0 0 -23 -8 0 0 0 -78 0 0 0 -42 -5 0 0 0 0 0 -1 0 0 0 0 0 0 0 0 0 0 0 0 0 0 0 0 0 0 0 0 0 0 0 0 0
0 0 -14 0 -2 -2 0 0 0 -17 0 -18 0 0 0 0 0 0 0 0 0 0 0 0 0 0 0 0 0 0 0 0 0 0 0 0 0 0 0 0 0 0 0 0
0 0 0 0 0 0 0 0 -20 0 0 0 0 0 0 0 0 0 0 0 0 0 0 0 0 0 0 0 0 0 0 0 0 0 0 0 0 0 0 0 0 0 0 0
0 -4 0 0 0 0 0 0 0 0 0 0 0 0 0 0 0 0 0 0 0 0 0 0 -13 0 0 0 0 0 0 0 0 0 0 0 0 0 0 0 0 0 0 0
0 0 0 -5 0 0 0 0 0 0 0 0 0 0 0 0 0 0 0 0 0 0 0 -5 -11 0 0 0 0 0 0 0 0 0 0 0 0 0 0 0 0 0 0 0
0 0 0 0 0 0 0 0 0 0 0 0 0 0 0 0 0 0 0 0 0 0 -25 -8 0 0 0 0 0 0 0 0 0 0 0 0 0 0 0 0 0 0 0 0
-1 0 0 0 0 0 0 0 0 0 0 0 0 0 0 0 0 0 0 0 0 0 -21 0 -4 -8 0 0 0 0 0 0 0 0 0 0 0 0 0 0 0 0 0 0
0 0 0 0 0 0 0 0 -4 0 0 0 0 0 0 0 0 0 0 0 0 0 -13 0 0 -9 0 0 0 0 0 0 0 0 0 0 0 0 0 0 0 0 0 0
Wind_Speed
22 22 19 24 23 28 32 35 40 37 36 39 42 49 50 49 41 41 38 37 32 25 21 23 20 21 21 21 21 21 20 19 18 17 16 17 17 16 15 14 12 11 10 10
23 20 23 23 25 26 30 37 42 45 38 37 47 60 47 45 44 39 39 35 29 30 28 28 25 23 23 23 23 23 23 21 20 19 19 19 17 17 16 15 14 11 10 9
18 20 23 23 26 29 32 36 41 43 45 43 47 70 49 41 39 36 32 31 34 34 34 31 29 26 25 26 25 24 25 24 22 21 18 18 17 19 18 17 15 12 10 9
20 20 24 27 28 29 44 31 35 39 41 51 34 70 45 42 40 39 34 31 32 33 33 32 30 28 27 28 27 27 26 25 24 22 20 19 20 21 18 16 14 11 9 10
22 26 26 26 26 25 34 30 33 35 40 47 43 43 66 36 43 41 42 39 36 33 33 33 30 28 25 25 25 26 26 26 24 23 21 21 20 19 17 15 13 11 10 10
22 25 26 26 27 24 28 34 35 36 37 51 43 38 74 51 45 39 32 29 35 37 33 30 28 28 27 24 24 24 26 27 25 24 22 21 20 18 17 15 14 12 11 11
37 31 27 25 35 30 31 38 50 50 45 55 37 37 43 39 37 38 39 50 42 41 40 36 32 29 27 25 23 22 24 25 25 24 23 21 20 17 16 15 13 12 12 13
39 44 31 29 31 35 35 32 40 54 56 58 40 51 48 38 39 41 43 45 43 44 42 37 36 31 25 20 19 18 20 23 23 24 23 21 19 18 16 14 13 12 12 11
41 38 34 44 41 33 38 41 37 50 60 63 63 61 60 52 49 45 43 44 43 42 48 45 38 31 22 18 16 18 19 20 22 23 22 21 19 17 16 14 12 12 11 11
35 56 40 37 41 36 40 40 52 46 62 72 63 61 60 57 56 51 49 48 46 45 45 42 39 33 26 21 20 20 19 19 20 21 21 19 18 16 15 13 12 12 11 11
38 40 50 48 44 51 53 53 47 51 51 63 71 64 42 42 46 49 50 49 44 43 43 41 40 33 30 24 21 20 20 19 20 21 19 18 17 16 14 14 12 12 11 10
37 43 59 59 53 46 46 53 48 56 57 52 56 65 49 54 57 60 61 58 59 51 45 41 40 37 31 29 23 23 23 22 22 20 19 18 17 16 15 15 13 11 11 10
42 43 63 69 49 40 50 52 51 51 51 62 65 62 58 66 73 67 63 56 56 56 57 49 45 42 37 33 32 29 27 25 23 21 20 19 18 16 16 15 13 11 10 10
41 44 48 62 62 63 66 62 59 60 66 69 67 65 61 66 66 59 60 59 57 56 54 50 46 43 41 39 34 31 29 28 25 22 22 20 18 17 16 14 13 12 10 10
42 52 52 55 55 57 62 64 61 61 60 65 70 69 64 65 67 59 53 55 56 56 54 52 51 48 45 42 38 33 30 27 25 23 22 21 18 16 15 14 13 12 10 10
39 54 51 56 51 51 56 54 53 51 51 51 50 56 49 47 49 48 49 50 53 52 51 52 54 50 47 44 42 36 32 28 25 26 23 21 19 17 16 14 13 11 10 10
47 47 47 52 45 46 49 43 40 40 40 42 46 37 40 43 46 50 53 50 49 49 50 53 52 50 49 46 44 41 34 29 28 28 25 22 20 18 16 14 13 12 11 10
40 39 36 40 37 43 40 41 43 39 41 42 34 42 44 42 46 46 44 46 47 50 51 51 50 51 50 50 46 43 32 27 27 28 27 24 21 18 16 14 13 12 10 10
21 26 31 32 37 39 35 31 40 45 51 38 37 44 48 48 48 45 36 35 47 50 51 51 51 52 52 52 48 42 32 25 24 25 25 25 21 18 17 16 14 12 10 11
22 22 25 31 37 37 32 41 40 30 41 30 50 56 52 49 49 48 48 50 51 50 50 51 52 53 52 52 47 43 34 28 26 24 24 23 21 19 18 15 13 12 10 11
33 29 27 28 32 30 27 28 32 37 38 54 53 51 50 50 47 55 55 53 51 50 50 50 52 52 53 52 48 46 36 28 26 23 22 21 19 18 16 14 12 11 10 10
31 27 29 24 25 30 23 37 36 39 32 44 51 49 52 53 53 53 54 52 51 52 50 47 50 52 52 49 46 41 35 31 23 21 21 19 18 16 14 13 11 10 9 10
25 19 24 21 23 25 23 27 32 34 28 50 43 50 50 53 53 51 51 51 50 50 46 46 47 50 47 42 39 37 32 24 20 20 20 18 16 14 12 11 10 10 10 11
19 23 25 33 27 23 23 22 23 29 36 42 41 44 46 51 51 51 50 49 48 48 44 44 45 46 41 33 28 25 21 19 18 19 18 16 14 13 11 10 9 10 10 12
27 34 30 29 27 25 26 32 31 33 42 43 44 42 43 44 48 47 48 48 47 47 42 41 43 38 30 25 18 14 15 15 16 16 15 13 12 11 10 10 9 10 11 11
31 27 26 25 31 33 31 34 36 39 44 43 45 50 45 40 43 46 47 47 47 46 43 38 37 30 23 18 10 8 10 12 12 12 12 12 10 10 9 9 11 11 10 9
Wind_Direction
313 308 300 301 298 298 301 299 296 298 301 298 293 289 285 284 290 289 291 293 292 282 266 280 270 260 258 253 246 238 239 244 248 256 259 267 270 278 288 296 306 319 331 340
315 309 311 308 306 302 299 298 296 297 300 297 295 284 292 290 290 289 290 290 285 289 286 283 276 267 255 251 246 241 237 240 244 250 259 272 271 280 286 291 298 306 318 328
309 315 319 316 312 307 302 300 300 298 300 298 299 277 292 293 291 293 290 288 291 289 287 283 277 266 262 253 246 241 237 239 243 249 254 273 275 287 283 286 290 293 304 315
322 324 318 312 308 307 299 306 301 301 301 294 304 284 296 297 295 296 297 298 297 295 291 288 284 276 264 252 252 244 240 239 242 241 243 249 262 271 277 280 284 286 293 306
325 323 320 315 313 315 308 310 305 303 299 299 294 293 286 306 299 300 300 300 301 300 296 291 286 279 270 265 252 243 238 237 237 234 238 247 259 269 279 281 277 281 292 301
309 318 315 312 314 311 316 313 310 306 300 291 292 292 276 297 299 305 307 308 311 309 306 301 295 290 281 271 258 248 238 234 233 232 237 242 249 260 271 275 274 278 289 297
321 320 320 319 312 312 307 305 302 298 294 291 299 288 275 300 309 306 301 303 306 307 306 303 300 295 285 274 259 252 239 232 229 227 235 241 248 250 258 263 268 274 285 294
321 316 331 339 329 320 318 309 299 298 295 295 300 287 290 305 306 306 303 301 303 302 303 306 304 300 292 278 259 248 241 238 231 231 235 242 245 250 257 260 267 271 278 288
321 317 328 320 324 324 317 307 307 296 293 292 289 289 292 296 298 302 305 304 302 301 300 300 302 301 297 281 260 253 248 242 231 229 237 240 243 247 251 257 262 270 281 289
324 312 318 322 321 317 313 314 305 301 295 289 288 289 288 294 296 301 305 308 306 304 306 304 300 299 293 284 272 261 255 243 234 233 234 235 237 244 249 254 258 268 277 286
326 317 312 317 317 316 314 307 301 299 291 291 290 286 295 298 302 303 303 303 310 307 308 310 306 301 296 289 274 260 255 248 241 236 235 235 240 242 248 252 258 265 273 280
328 318 310 310 313 310 307 303 302 298 297 293 290 283 291 296 297 300 298 296 295 299 302 306 308 302 298 289 285 267 260 251 247 239 234 236 239 240 247 253 257 263 270 282
328 322 316 313 317 320 313 309 305 303 299 291 289 289 296 294 294 294 294 294 294 292 289 296 300 300 294 290 283 277 263 254 249 241 238 240 241 239 244 249 254 260 269 281
322 315 310 307 309 312 307 305 303 299 293 293 288 292 295 294 295 295 293 293 292 290 290 289 292 295 292 288 283 277 268 257 247 243 242 238 238 238 243 247 250 258 263 279
326 314 312 308 309 309 306 305 304 300 297 293 294 292 294 292 290 294 297 294 292 289 288 287 286 289 289 286 283 278 271 260 246 243 242 241 241 240 243 245 250 256 261 279
323 314 313 309 312 310 309 309 308 308 305 302 302 298 305 303 300 296 294 297 293 291 290 289 284 284 285 284 281 279 270 260 248 243 242 244 241 238 236 243 247 251 261 279
318 318 317 312 316 316 315 320 318 315 315 315 310 318 320 313 308 299 293 296 296 296 293 291 286 280 282 283 281 277 272 260 248 243 243 242 239 235 236 241 244 246 257 277
318 318 321 319 322 318 324 322 315 315 315 316 320 318 316 309 303 284 304 297 295 296 294 291 286 281 280 281 278 276 272 258 244 240 243 241 238 235 238 241 242 245 258 273
328 330 329 326 323 323 330 334 324 319 307 314 316 316 313 310 295 282 314 316 303 300 294 293 292 287 282 280 275 272 266 253 242 237 235 238 236 234 235 240 239 245 259 280
350 336 329 325 324 324 325 326 324 328 319 317 311 305 305 311 295 284 305 307 303 301 301 295 292 285 282 280 272 266 261 251 243 238 234 231 228 231 236 238 235 249 262 282
334 331 321 322 324 326 335 337 334 326 323 309 309 308 308 302 307 292 301 299 305 304 303 298 294 288 282 283 268 258 256 247 245 243 233 228 227 229 232 232 237 247 265 289
332 333 326 333 332 331 352 334 332 326 310 322 312 311 307 303 305 305 303 299 298 303 309 305 299 297 289 281 262 253 251 249 244 234 226 223 226 231 229 225 237 251 269 288
330 327 320 323 319 321 318 324 329 330 327 303 324 317 312 305 303 301 298 307 307 308 316 308 306 299 293 282 261 250 247 241 231 225 221 217 219 226 223 223 237 257 275 291
340 329 317 320 319 318 324 311 331 333 328 325 327 325 321 309 308 302 300 303 308 309 318 308 313 303 303 289 266 253 240 230 220 218 212 209 210 220 224 233 246 265 280 296
320 319 317 311 315 317 336 337 335 333 325 323 322 326 326 322 311 309 301 301 302 304 317 310 313 302 302 292 270 250 230 211 206 204 209 210 213 216 227 244 257 274 291 301
319 316 315 313 325 327 327 334 337 334 327 325 323 317 323 326 320 313 305 302 302 303 312 297 304 298 296 296 280 241 216 206 192 191 206 214 218 228 240 255 278 296 307 312